Theta_e
321 318 316 316 316 316 318 318 317 317 316 315 316 316 317 318 316 315 316 316 316 314 313 312 311 311 310 310 310 309 310 311 311 310 310 310 310 309 308 308 307 307
323 322 319 317 316 316 318 319 318 317 316 315 315 315 316 318 318 317 317 317 316 316 314 313 312 311 311 310 310 310 310 311 311 310 311 310 310 310 309 309 308 307
323 323 322 320 318 318 318 318 319 318 317 316 315 315 316 318 318 318 317 317 317 316 315 313 312 311 311 310 310 310 310 310 310 310 311 310 310 310 309 309 308 307
319 317 319 321 321 321 318 316 317 319 319 318 317 316 317 317 318 319 318 318 317 317 315 314 312 311 311 311 311 310 310 310 310 310 310 309 308 308 308 307 307 307
318 316 319 321 323 324 322 318 315 316 319 319 319 317 316 317 318 319 318 318 317 317 316 314 313 312 311 311 311 311 310 310 309 309 309 308 307 307 306 306 306 306
321 320 321 322 323 325 324 322 317 315 316 318 320 318 316 316 317 318 318 318 318 317 316 315 314 312 312 312 312 311 310 309 309 308 308 308 307 306 306 305 305 305
322 323 323 323 323 324 324 323 321 319 317 317 320 319 317 316 317 317 318 318 317 317 316 315 314 313 312 311 311 311 310 309 308 308 308 307 307 306 306 305 304 304
321 322 323 323 323 324 323 322 321 321 320 319 320 320 318 317 317 318 318 318 318 317 316 315 314 312 312 311 311 310 309 309 308 308 307 307 307 306 305 305 305 304
322 322 322 323 323 323 323 323 322 322 321 320 320 320 319 318 317 318 318 317 317 317 316 315 313 312 311 311 311 310 309 309 308 307 307 307 307 305 304 304 305 304
323 323 322 322 323 323 322 323 323 322 322 321 320 321 320 318 318 319 318 317 317 317 316 314 313 312 311 311 311 310 309 309 308 307 307 306 306 305 304 304 304 304
323 322 322 322 323 323 322 322 322 322 322 321 320 321 321 319 320 319 318 318 318 317 316 314 313 312 311 311 310 309 309 308 307 307 306 306 305 304 303 303 303 303
322 322 323 323 323 323 322 321 321 321 322 320 320 320 321 320 320 319 318 318 318 317 315 314 313 312 311 310 309 309 308 308 307 306 305 304 304 303 302 302 302 302
322 322 323 323 323 323 323 322 322 321 322 321 320 320 321 320 319 319 319 318 318 316 315 314 313 312 311 310 309 308 308 307 306 305 304 303 301 300 300 300 300 300
320 321 321 322 322 323 323 323 323 322 322 321 321 320 320 320 319 319 318 318 317 316 314 313 312 311 310 309 309 308 307 307 305 304 302 301 300 299 299 299 299 299
316 318 319 320 321 321 322 322 322 322 322 322 321 321 320 320 320 319 318 317 316 315 314 313 312 311 310 309 308 308 306 305 303 302 301 300 299 299 298 298 298 298
313 315 317 318 319 320 320 321 321 322 322 322 321 321 320 320 319 317 316 316 315 314 313 312 311 310 309 307 307 306 304 303 301 300 299 298 298 298 298 298 298 298
310 312 315 317 318 318 320 320 320 321 320 321 321 320 320 318 316 315 314 313 313 313 313 312 311 309 307 306 304 303 302 301 300 299 298 298 298 297 298 298 298 298
308 309 311 314 316 317 318 319 319 319 320 319 319 318 317 316 314 314 313 313 313 312 312 311 309 307 305 304 303 302 301 300 300 299 298 297 297 297 297 297 297 297
308 308 309 312 315 316 317 318 318 318 318 319 318 317 316 315 314 314 313 313 312 310 309 308 307 306 305 303 302 302 299 298 298 298 298 297 297 297 297 297 297 297
308 308 309 310 312 314 316 317 317 317 317 317 317 316 315 315 314 313 313 312 310 308 307 306 306 305 304 303 302 299 296 296 298 298 297 297 297 296 296 297 297 297
308 309 309 309 311 313 315 316 316 316 316 316 316 316 315 314 313 313 312 310 308 308 306 305 305 305 303 301 299 296 294 295 297 298 297 297 297 297 297 297 297 297
309 309 309 310 311 313 314 315 315 315 315 315 316 315 314 314 312 311 310 308 308 307 306 305 304 303 301 299 296 294 294 295 297 298 298 297 297 297 297 297 297 297
309 309 309 310 311 312 313 314 315 314 314 314 314 314 314 313 311 310 309 308 307 305 304 303 302 300 299 297 294 293 294 295 297 298 298 298 298 298 298 297 297 297
309 309 309 310 311 312 313 314 314 314 314 314 314 314 314 312 310 309 308 306 305 304 303 302 301 299 297 295 293 293 294 296 297 298 298 298 298 298 298 298 297 297
309 309 309 310 311 312 313 313 313 313 313 313 314 314 314 313 310 308 306 305 304 303 302 302 299 296 295 294 294 293 293 295 297 297 297 298 298 298 298 298 297 297
309 309 310 310 311 312 312 312 312 312 312 313 313 314 314 312 309 306 304 304 303 301 300 300 299 297 295 294 294 294 293 294 296 297 297 298 298 298 298 297 297 297
Wind_Speed
15 15 15 14 13 11 10 9 9 9 8 7 6 7 7 8 9 9 7 7 8 8 8 8 8 8 7 7 6 6 6 6 6 6 6 5 5 5 5 4 4 3
15 14 14 14 14 12 11 11 10 10 10 9 7 7 8 9 10 10 10 9 8 8 8 8 7 7 6 6 6 5 5 5 5 5 5 4 4 4 4 3 3 3
17 16 16 15 14 14 14 13 12 11 11 11 10 9 10 11 12 11 11 11 10 9 9 8 8 7 6 6 6 6 5 5 5 4 4 4 3 3 3 2 3 3
23 23 21 19 16 15 16 16 15 13 12 13 13 12 12 13 13 13 13 12 11 11 10 9 8 8 7 7 6 6 6 5 5 4 4 3 3 3 2 2 2 2
25 26 22 19 16 15 16 17 18 16 14 14 15 15 15 15 15 15 14 14 13 12 11 10 9 8 7 7 7 6 6 6 5 5 4 3 3 2 2 2 2 2
21 22 20 19 17 15 16 17 19 18 17 16 15 16 17 17 16 16 16 16 15 14 13 12 10 9 8 7 6 6 6 6 6 6 5 4 3 2 2 1 1 2
18 18 18 18 18 17 18 18 18 18 19 18 16 17 18 18 18 17 18 17 16 16 15 14 12 11 9 8 7 7 7 6 6 6 6 5 4 3 3 1 0 1
18 18 18 18 18 19 19 19 18 17 18 18 18 18 19 20 19 19 19 18 18 17 16 15 14 12 11 10 9 9 8 7 7 6 6 5 4 3 3 2 1 1
15 17 17 18 19 20 21 20 19 18 18 19 19 19 19 20 20 20 20 19 19 18 18 17 15 14 13 11 11 11 9 9 8 7 6 5 4 3 2 2 1 2
11 12 14 16 17 18 19 18 16 16 17 18 18 17 19 21 21 22 22 21 20 19 19 18 17 16 14 13 13 12 11 10 9 8 7 6 5 4 3 2 2 2
9 10 13 16 16 16 15 15 15 16 16 17 18 18 20 22 23 23 24 23 22 22 21 19 19 18 16 15 14 13 12 11 10 9 8 7 5 4 3 3 3 3
7 9 12 15 16 16 16 17 17 18 18 20 21 21 21 22 24 25 25 25 24 23 22 21 20 19 18 17 15 14 13 11 10 9 8 7 5 4 4 4 4 4
7 9 12 14 15 15 17 17 18 18 20 20 20 20 21 23 24 24 25 25 24 23 23 22 21 20 18 17 16 15 13 12 11 9 8 7 6 5 5 4 4 4
6 7 9 11 13 14 16 17 18 19 20 20 19 20 22 22 23 23 23 24 25 25 24 22 22 21 19 18 17 15 14 12 11 9 8 7 6 6 5 5 5 5
6 7 7 8 10 12 14 16 17 18 19 19 19 19 20 21 22 23 23 23 25 25 24 23 22 20 20 19 17 15 13 12 10 9 8 7 6 5 5 5 4 4
6 7 7 8 9 10 11 13 15 17 18 19 19 19 19 19 19 21 22 21 21 23 24 23 21 20 21 20 18 15 12 10 9 8 7 6 6 5 5 4 4 5
7 7 8 8 9 10 10 11 13 14 16 17 17 18 16 16 21 24 25 24 22 23 23 21 20 22 23 21 17 14 11 9 8 7 7 6 6 5 4 4 5 6
8 8 9 9 9 10 10 10 11 12 14 14 14 15 16 18 22 25 26 26 24 21 18 16 17 21 20 16 13 11 9 8 7 7 7 6 6 5 5 5 6 7
10 10 10 10 10 10 9 9 9 10 11 11 12 15 17 18 21 23 24 23 22 21 19 17 16 17 15 12 10 8 7 7 7 7 6 6 6 5 6 7 8 8
10 10 10 11 11 11 10 9 9 9 10 11 12 14 17 18 19 21 20 20 21 22 21 18 17 15 14 11 9 7 7 7 7 6 5 5 6 6 7 8 9 9
10 10 11 11 12 11 10 9 9 9 10 11 12 13 16 17 17 19 19 19 20 20 18 15 14 14 13 11 9 8 7 7 6 6 5 6 7 8 9 9 10 10
11 11 11 11 12 11 11 10 9 10 10 11 12 13 15 16 17 18 19 18 17 16 15 14 14 14 12 10 9 9 7 5 5 5 6 7 8 8 10 10 11 11
13 13 12 12 11 11 11 11 10 11 12 13 14 14 16 16 16 17 17 16 16 15 14 12 13 13 11 9 9 8 6 4 4 6 7 8 8 9 10 11 12 13
14 14 13 12 12 12 11 11 11 12 13 14 16 16 16 17 17 17 17 17 18 18 14 11 11 11 9 8 8 7 4 4 5 7 8 9 9 10 11 12 13 14
13 14 13 12 12 12 12 12 12 13 14 16 17 17 17 17 16 17 18 18 18 18 16 12 10 9 7 7 6 5 4 4 6 8 8 9 11 11 12 13 13 15
13 14 13 13 13 13 13 13 13 14 15 17 18 17 17 17 16 19 21 18 16 16 14 11 10 8 6 5 4 4 4 5 7 8 10 11 12 12 13 14 15 15
Wind_Direction
208 202 197 195 199 202 200 201 197 190 189 192 192 188 184 176 170 166 155 143 134 124 119 116 110 107 102 95 91 88 85 84 83 81 81 77 75 70 59 50 38 15
214 210 205 200 200 201 201 202 201 199 198 195 194 191 185 178 175 172 164 155 147 139 132 127 120 115 111 105 100 95 90 87 83 81 81 77 72 68 60 46 28 4
218 217 216 211 204 202 205 208 209 206 203 197 192 190 185 180 179 176 171 165 158 153 146 140 137 131 127 123 117 111 106 101 97 94 88 78 68 61 55 41 22 358
223 223 222 220 214 208 210 215 217 212 205 199 193 189 184 181 181 179 175 173 167 162 158 153 150 145 142 139 132 127 123 118 113 112 108 94 80 70 57 35 17 356
224 225 224 223 221 215 211 214 220 219 213 206 196 190 186 182 183 182 179 178 174 170 166 163 160 156 153 149 144 140 134 128 128 130 129 120 104 89 69 38 12 351
223 224 225 225 226 224 219 217 220 220 221 217 203 194 189 185 185 186 183 182 179 176 173 170 168 164 162 159 153 148 143 139 139 141 142 138 136 133 120 82 345 323
225 227 226 226 226 228 229 228 224 219 220 220 210 202 194 188 189 189 187 186 183 181 179 175 174 171 169 168 163 155 149 148 149 151 151 148 151 157 156 157 237 299
231 233 232 231 229 229 231 233 230 223 219 216 212 207 200 194 192 191 190 189 186 184 183 180 178 176 174 173 170 165 160 160 161 160 159 156 158 164 167 174 201 265
241 240 240 238 234 233 234 232 230 226 221 218 214 210 205 200 196 192 191 191 189 186 183 181 180 177 177 177 174 172 170 169 169 169 168 167 170 176 190 209 230 259
256 257 258 255 249 245 241 235 231 227 222 221 218 210 206 203 197 194 193 192 191 188 184 181 180 178 178 179 178 177 176 172 172 173 173 175 180 190 213 238 247 254
270 274 273 270 266 262 255 247 240 235 227 224 223 217 210 205 198 194 193 192 190 188 185 183 182 181 180 179 178 178 176 175 174 175 176 177 185 200 220 233 237 242
304 290 277 269 263 259 256 251 245 239 231 230 229 222 212 204 200 196 193 191 190 187 186 186 184 183 181 180 179 177 176 175 174 175 178 180 188 202 212 220 227 236
338 306 287 276 268 262 258 255 249 244 238 234 230 224 216 209 205 201 194 189 187 186 187 187 185 183 181 180 179 178 177 175 174 175 179 181 185 191 196 205 216 225
344 310 294 285 279 273 267 260 255 251 246 240 232 226 222 218 212 204 196 190 185 184 185 185 183 182 180 179 180 179 177 174 173 176 178 179 180 182 186 192 203 215
330 311 299 290 283 278 273 267 261 256 252 247 239 230 226 226 218 200 190 188 184 180 181 181 181 182 181 180 177 176 175 172 171 175 178 179 177 179 185 193 206 221
317 308 297 290 284 278 274 270 266 262 257 251 246 240 232 224 205 183 176 182 183 180 179 178 179 183 185 182 176 172 170 167 167 172 177 179 180 184 196 211 227 240
311 303 296 290 285 280 274 267 263 261 258 255 250 242 224 197 183 181 185 192 194 187 181 176 179 186 189 187 183 178 167 160 165 173 178 185 187 195 215 231 245 259
311 307 302 295 285 279 273 265 260 256 253 253 247 232 212 194 193 198 197 194 192 186 173 167 177 186 188 188 189 186 172 163 170 177 182 191 195 205 231 248 256 265
309 306 302 296 287 281 271 261 257 253 245 241 237 231 224 215 205 200 195 187 181 174 168 171 183 187 188 192 195 193 179 170 177 184 189 202 208 216 238 251 258 264
306 302 297 293 288 280 270 256 250 251 247 240 232 228 229 223 206 193 187 179 175 175 175 182 191 191 191 195 192 183 175 169 177 190 200 216 223 231 245 252 257 262
310 304 297 293 287 279 270 259 248 244 247 244 234 224 221 217 202 188 180 175 175 176 171 174 186 188 188 188 182 176 172 167 176 195 215 232 235 241 250 256 261 263
315 307 300 293 287 279 267 258 247 239 238 238 234 225 215 205 192 184 180 173 165 158 151 160 179 186 185 183 180 178 172 169 193 216 230 240 244 249 257 261 265 265
316 310 302 292 284 274 263 253 245 239 234 230 230 225 213 198 182 178 176 165 152 147 144 152 171 180 183 183 183 185 178 180 219 239 246 251 257 262 267 269 268 266
313 308 301 291 282 272 262 250 242 238 234 228 227 226 216 196 175 168 165 158 156 155 146 143 160 171 177 184 189 191 183 199 244 260 264 267 271 272 274 276 274 271
306 303 296 288 279 270 260 250 242 239 236 229 225 224 215 197 175 160 154 152 156 154 143 137 146 155 163 177 193 201 200 229 261 274 275 277 280 282 282 281 280 280
297 296 290 281 274 267 259 251 244 241 238 231 225 220 211 194 171 154 150 149 147 144 140 136 135 138 147 162 184 212 227 245 265 277 281 284 286 287 287 286 284 285